#timestamp,LO_Frequency,Hit,StdDev 
1562065215.8,286047000.5,N
1562065235.6,286047000.7,N
1562065255.5,286047000.8,N
1562065275.3,286047000.2,N
1562065295.2,286046999.0,N
1562065315.9,286047001.2,N
1562065335.7,286047000.2,N
1562065355.6,286046999.9,N
1562065375.4,286047002.5,N
1562065395.2,286047002.3,N
1562065415.1,286047002.7,N
1562065416.0,286047002.7,N
1562065435.8,286047002.4,N
1562065455.7,286047001.4,N
1562065475.5,286047003.9,N
1562065495.3,286047004.3,Y
1562065515.2,286047000.4,P
1562065535.0,286047002.4,P
1562065535.9,286047002.4,N
1562065555.7,286047001.7,N
1562065575.6,286047004.4,Y
1562065595.4,286047002.3,P
1562065615.3,286047001.9,P
1562065635.1,286047001.5,P
1562065636.0,286047001.5,Y
1562065655.8,286046999.7,P
1562065675.7,286047002.0,N
1562065695.5,286047003.5,P
1562065715.3,286047004.2,Y
1562065735.2,286047004.0,P
1562065755.0,286047004.0,P
1562065755.9,286047004.0,P
1562065775.8,286047003.8,Y
1562065795.6,286046999.0,P
1562065815.4,286046998.5,N
1562065835.3,286046996.5,N
1562065855.1,286046996.7,N
1562065875.8,286046999.6,N
1562065895.7,286046999.0,N
1562065915.5,286047001.2,N
1562065935.4,286046999.3,N
1562065955.2,286046998.2,N
1562065975.0,286046999.7,N
1562065975.9,286046999.7,N
1562065995.8,286047000.4,N
1562066015.6,286047002.8,N
1562066035.4,286047000.2,N
1562066055.3,286046999.8,N
1562066075.1,286047002.4,N
1562066095.9,286047000.5,N
1562066115.7,286046998.1,N
1562066135.5,286047000.1,N
1562066155.4,286047000.8,N
1562066175.2,286046997.4,N
1562066195.0,286046997.2,N
1562066195.9,286046997.2,N
1562066215.8,286046997.4,N
1562066235.6,286046998.0,N
1562066255.5,286046995.8,N
1562066275.3,286046996.0,N
1562066295.1,286046997.5,N
1562066315.9,286046999.1,N
1562066335.7,286046998.5,N
1562066355.5,286047001.2,N
1562066375.4,286046999.2,N
1562066395.2,286046998.7,N
1562066415.0,286046996.7,N
1562066416.0,286046996.7,N
1562066435.8,286046997.0,N
1562066455.6,286046999.5,N
1562066475.5,286046997.2,N
1562066495.3,286046997.4,N
1562066515.1,286046997.1,N
1562066535.9,286046997.2,N
1562066555.7,286046994.9,N
1562066575.5,286046997.2,N
1562066595.4,286046997.1,N
1562066615.2,286046997.0,N
1562066635.1,286046997.2,N
1562066636.0,286046997.2,N
1562066655.8,286046996.8,N
1562066675.6,286046999.6,N
1562066695.5,286046996.7,N
1562066715.3,286046996.5,N
1562066735.1,286046995.0,Y
1562066755.9,286046998.6,P
1562066775.7,286046998.4,N
1562066795.6,286046998.1,P
1562066815.4,286046998.4,Y
1562066835.2,286047001.2,P
1562066855.1,286046999.1,N
1562066856.0,286046999.1,N
1562066875.8,286046998.6,N
1562066895.6,286046999.3,N
1562066915.5,286046997.0,Y
1562066935.3,286046998.8,P
1562066955.2,286046999.1,P
1562066975.9,286046998.7,P
1562066995.7,286046998.5,Y
1562067015.6,286046999.8,P
1562067035.4,286047000.1,N
1562067055.2,286047000.9,N
1562067075.1,286047002.8,Y
1562067076.0,286047002.8,P
1562067095.8,286047000.7,N
1562067115.7,286047000.8,N
1562067135.5,286046998.1,N
1562067155.3,286046999.0,N
1562067175.2,286046997.6,N
1562067195.0,286046997.4,N
1562067195.9,286046997.4,N
1562067215.7,286046997.3,N
1562067235.6,286046999.1,N
1562067255.4,286046999.0,N
1562067275.3,286046999.3,N
1562067295.1,286047000.6,N
1562067296.0,286047000.6,N
1562067315.8,286047000.4,N
1562067335.7,286046998.3,N
1562067355.5,286046998.5,N
1562067375.3,286046996.6,N
1562067395.2,286046997.2,N
1562067415.0,286046999.4,N
1562067415.9,286046999.4,N
1562067435.8,286047000.8,N
1562067455.6,286047000.0,N
1562067475.4,286047000.5,N
1562067495.3,286046998.1,N
1562067515.1,286046998.2,N
1562067535.8,286047002.6,N
1562067555.7,286047002.0,N
1562067575.5,286047004.1,N
1562067595.4,286047004.4,N
1562067615.2,286047002.7,N
1562067635.0,286047002.7,N
1562067635.9,286047002.7,N
1562067655.8,286047002.4,N
1562067675.6,286047001.6,N
1562067695.4,286047001.3,N
1562067715.3,286047001.4,N
1562067735.1,286047002.2,N
1562067755.8,286047002.2,N
1562067775.7,286047001.6,N
1562067795.5,286047000.0,N
1562067815.4,286047000.0,N
1562067835.2,286047002.1,N
1562067855.0,286047004.1,N
1562067855.9,286047004.1,N
1562067875.8,286047003.7,N
1562067895.6,286047003.6,N
1562067915.4,286047003.0,N
1562067935.3,286047005.8,Y
1562067955.1,286047003.7,P
1562067975.9,286047001.5,N
1562067995.7,286047001.3,N
1562068015.5,286047003.4,Y
1562068035.4,286047002.3,P
1562068055.2,286046999.7,N
1562068075.0,286046998.5,N
1562068076.0,286046998.5,N
1562068095.8,286046998.5,N
1562068115.6,286046998.4,N
1562068135.5,286046996.9,N
1562068155.3,286046998.0,N
1562068175.1,286046996.6,N
1562068195.9,286046997.4,N
1562068215.7,286046999.1,N
1562068235.5,286046997.3,N
1562068255.4,286046997.9,N
1562068275.2,286046997.8,N
1562068295.1,286046997.6,N
1562068296.0,286046997.6,N
1562068315.8,286046995.3,Y
1562068335.6,286046997.1,P
1562068355.5,286046998.4,N
1562068375.3,286046997.3,P
1562068395.1,286046997.0,Y
1562068415.9,286047001.1,P
1562068435.7,286046998.1,N
1562068455.6,286047000.3,N
1562068475.4,286047002.8,N
1562068495.2,286047001.7,N
1562068515.1,286047003.4,N
1562068516.0,286047003.4,N
1562068535.8,286047001.8,N
1562068555.6,286047001.7,N
1562068575.5,286047002.7,N
1562068595.3,286047001.8,N
1562068615.1,286047001.7,N
1562068635.9,286047001.3,N
1562068655.7,286047000.2,N
1562068675.6,286047002.4,N
1562068695.4,286047003.8,N
1562068715.2,286047003.9,N
1562068735.1,286047002.0,N
1562068736.0,286047002.0,N
1562068755.8,286047001.3,N
1562068775.6,286047004.3,N
1562068795.5,286047002.2,N
